Regional Weather Roundup
Issued by NWS

Home | Current Version | Previous Version | Text Only | Print | Product List | Glossary Off
Versions: 1 2 3 4 5 6 7 8 9 10 11 12 13 14 15 16 17 18 19 20 21 22 23 24 25 26 27 28 29 30 31 32 33 34 35 36 37 38 39 40 41 42 43 44 45 46 47 48 49 50

661
ASUS43 KFSD 231302
RWRSD

WEATHER ROUNDUP FOR SOUTH DAKOTA
NATIONAL WEATHER SERVICE SIOUX FALLS SD
800 AM CDT SAT JUL 23 2016

NOTE: "FAIR" INDICATES FEW OR NO CLOUDS BELOW 12,000 FEET WITH NO
SIGNIFICANT WEATHER AND/OR OBSTRUCTIONS TO VISIBILITY.


SDZ001>005-009-010-012>017-231400-
NORTHWEST AND NORTH CENTRAL SOUTH DAKOTA

CITY           SKY/WX    TMP DP  RH WIND       PRES   REMARKS
BUFFALO          N/A     70  62  76 W16       29.76R
FAITH            N/A     71  67  87 S16       29.79R
MOBRIDGE       CLOUDY    75  68  78 N8G21     29.67F
$$

SDZ012>016-024>037-041>051-057-063-072>074-231400-
SOUTHWEST AND SOUTH CENTRAL SOUTH DAKOTA

CITY           SKY/WX    TMP DP  RH WIND       PRES   REMARKS
RAPID CTY ARPT SUNNY     69  59  70 E3        29.84R
PIERRE         CLOUDY    77  74  90 NE12      29.76S
CUSTER         SUNNY     71  49  45 W10       30.01R
ELLSWORTH AFB  SUNNY     71  58  65 CALM      29.83R
PHILIP         CLOUDY    72  71  97 CALM      29.76F
PINE RIDGE     SUNNY     70  64  81 SW12      29.86S
WINNER         FAIR      74  65  73 W5        29.80R
$$

SDZ004>011-016>023-039-040-231400-
NORTHEAST SOUTH DAKOTA

CITY           SKY/WX    TMP DP  RH WIND       PRES   REMARKS
ABERDEEN       CLOUDY    75  71  87 SE9       29.79S
WATERTOWN      TSTM      70  67  90 SE12      29.84F FOG
BROOKINGS      RAIN      68  67  96 SE3       29.85F
SISSETON         N/A     73  70  90 S3        29.80S
$$

SDZ017-020-022-023-036>040-048>070-231400-
SOUTHEAST SOUTH DAKOTA

CITY           SKY/WX    TMP DP  RH WIND       PRES   REMARKS
SIOUX FALLS    LGT RAIN  72  70  93 NE10      29.81F
HURON          CLOUDY    71  70  96 E8        29.77R
CHAMBERLAIN    MOSUNNY   73  70  90 SE8       29.78S
MITCHELL       CLOUDY    71  69  93 E12       29.79F
YANKTON        CLOUDY    75  72  88 NE6       29.81R
$$

ABBREVIATIONS USED IN REMARKS
   TC - TEMPERATURE IN CELSIUS
  WCI - WIND CHILL INDEX
   HX - HEAT INDEX
  VSB - VISIBILITY





USA.gov is the U.S. government's official web portal to all federal, state and local government web resources and services.